This is the latest recevied weather packets stored in our database for station/object W4NRG-1. If no packets are shown the sender has not sent any weather packets the latest 10 day(s).
| Time | Temp. | Humidity | Pressure | Rain* | Wind** | Luminosity | Snow |
|---|---|---|---|---|---|---|---|
| 1778167427 | 13.89° C | 50% | 1013.5 hPa | 0 mm | - | - | - |
| 1778167123 | 14.44° C | 49% | 1013.3 hPa | 0 mm | - | - | - |
| 1778166819 | 14.44° C | 50% | 1013.1 hPa | 0 mm | - | - | - |
| 1778166516 | 14.44° C | 52% | 1013.1 hPa | 0 mm | - | - | - |
| 1778166213 | 14.44° C | 50% | 1013.2 hPa | 0 mm | - | - | - |
| 1778165909 | 14.44° C | 50% | 1013.2 hPa | 0 mm | - | - | - |
| 1778165605 | 14.44° C | 52% | 1013.5 hPa | 0 mm | - | - | - |
| 1778165303 | 14.44° C | 53% | 1013.5 hPa | 0 mm | - | - | - |
| 1778165000 | 14.44° C | 57% | 1013.4 hPa | 0 mm | - | - | - |
| 1778164696 | 14.44° C | 54% | 1013.7 hPa | 0 mm | - | - | - |
| 1778164394 | 15° C | 56% | 1013.6 hPa | 0 mm | - | - | - |
| 1778164089 | 15° C | 54% | 1013.3 hPa | 0 mm | - | - | - |
| 1778163786 | 15° C | 57% | 1013.7 hPa | 0 mm | - | - | - |
| 1778163483 | 15° C | 57% | 1013.6 hPa | 0 mm | - | - | - |
| 1778163180 | 15° C | 66% | 1013.6 hPa | 0 mm | - | - | - |
| 1778162875 | 15° C | 63% | 1013.6 hPa | 0 mm | - | - | - |
| 1778162573 | 15° C | 64% | 1013.5 hPa | 0 mm | - | - | - |
| 1778162270 | 15.56° C | 60% | 1013.6 hPa | 0 mm | - | - | - |
| 1778161968 | 15.56° C | 62% | 1013.3 hPa | 0 mm | - | - | - |
| 1778161663 | 16.11° C | 64% | 1013.5 hPa | 0 mm | - | - | - |
| 1778161361 | 15.56° C | 71% | 1012.9 hPa | 0 mm | - | - | - |
| 1778161056 | 15.56° C | 74% | 1013.2 hPa | 0 mm | - | - | - |
| 1778160753 | 15° C | 74% | 1013.5 hPa | 0 mm | - | - | - |
| 1778160451 | 14.44° C | 75% | 1013.5 hPa | 0 mm | - | - | - |
| 1778160147 | 14.44° C | 75% | 1013.5 hPa | 0 mm | - | - | - |
* Rain latest hour (hover to see other rain measurements)
** Current wind speed in m/s (hover to see current wind gust speed)